Location: Chassagnes
(44.4047°N, 4.1657°E)
Time: 12:27:20
(UTC+00:00)

Cosmos 968 Rocket - Pass Details

Date: 27 October 2020
Orbit: 741 x 770 km, 74.0° (Epoch: 23 November)

Event Time Altitude Azimuth Distance (km) Brightness Sun altitude
Rises 17:57:12 0° 341° (NNW) 3,240 6.9 -14.5°
Reaches altitude 10° 17:59:38 10° 345° (NNW) 2,306 6.1 -14.9°
Maximum altitude 18:04:48 62° 66° (ENE) 853 3.4 -15.8°
Drops below altitude 10° 18:09:55 10° 148° (SSE) 2,270 5.7 -16.7°
Enters shadow 18:11:25 - 150° (SSE) 2,851 6.2 -17.0°
